UAL1022 KLAX-KSAN

Flight info

Callsign UAL1022
Flight time 0h 38m
Altitude 13000
Route LAXX1 MZB
Aircraft B38M/M-SDE1FGHILORVWXY/HB1

Departure

Time 2026-04-22 00:22
Airport Los Angeles International Airport (KLAX)

Arrival

Time 2026-04-22 01:00
Airport San Diego International Airport (KSAN)
Time Latitude Longitude Altitude Speed Heading
2026-04-21 23:38 33.94153 -118.39893 128 ft 0 kts 270°
2026-04-22 00:04 33.94154 -118.39883 123 ft 4 kts 261°
2026-04-22 00:05 33.94162 -118.39854 124 ft 4 kts 229°
2026-04-22 00:05 33.94183 -118.39841 123 ft 4 kts 179°
2026-04-22 00:05 33.94195 -118.39842 123 ft 1 kts 172°
2026-04-22 00:09 33.94186 -118.39840 126 ft 3 kts 172°
2026-04-22 00:09 33.94152 -118.39835 125 ft 7 kts 173°
2026-04-22 00:10 33.94097 -118.39827 125 ft 7 kts 176°
2026-04-22 00:10 33.94046 -118.39826 126 ft 7 kts 178°
2026-04-22 00:10 33.93990 -118.39821 126 ft 8 kts 186°
2026-04-22 00:10 33.93982 -118.39834 128 ft 2 kts 255°
2026-04-22 00:11 33.93978 -118.39860 128 ft 4 kts 260°
2026-04-22 00:11 33.93971 -118.39908 128 ft 7 kts 260°
2026-04-22 00:11 33.93964 -118.39973 128 ft 9 kts 263°
2026-04-22 00:11 33.93955 -118.40057 128 ft 11 kts 263°
2026-04-22 00:12 33.93945 -118.40159 128 ft 13 kts 264°
2026-04-22 00:12 33.93932 -118.40278 128 ft 15 kts 262°
2026-04-22 00:12 33.93921 -118.40399 128 ft 13 kts 265°
2026-04-22 00:12 33.93909 -118.40509 125 ft 14 kts 263°
2026-04-22 00:13 33.93900 -118.40596 127 ft 9 kts 263°
2026-04-22 00:13 33.93892 -118.40673 128 ft 9 kts 262°
2026-04-22 00:13 33.93884 -118.40752 126 ft 10 kts 263°
2026-04-22 00:13 33.93875 -118.40842 128 ft 13 kts 263°
2026-04-22 00:14 33.93862 -118.40967 128 ft 18 kts 263°
2026-04-22 00:14 33.93850 -118.41089 127 ft 17 kts 262°
2026-04-22 00:14 33.93839 -118.41215 124 ft 8 kts 266°
2026-04-22 00:14 33.93876 -118.41278 127 ft 13 kts 358°
2026-04-22 00:15 33.93984 -118.41280 127 ft 16 kts 354°
2026-04-22 00:15 33.94108 -118.41299 126 ft 19 kts 353°
2026-04-22 00:15 33.94231 -118.41316 126 ft 17 kts 352°
2026-04-22 00:15 33.94355 -118.41336 127 ft 19 kts 351°
2026-04-22 00:16 33.94491 -118.41360 127 ft 18 kts 352°
2026-04-22 00:16 33.94615 -118.41377 126 ft 17 kts 353°
2026-04-22 00:16 33.94724 -118.41391 126 ft 12 kts 354°
2026-04-22 00:16 33.94782 -118.41373 128 ft 7 kts 51°
2026-04-22 00:17 33.94793 -118.41304 128 ft 10 kts 85°
2026-04-22 00:17 33.94802 -118.41214 126 ft 12 kts 82°
2026-04-22 00:17 33.94813 -118.41103 128 ft 15 kts 84°
2026-04-22 00:17 33.94826 -118.40974 128 ft 17 kts 83°
2026-04-22 00:18 33.94841 -118.40824 128 ft 19 kts 84°
2026-04-22 00:18 33.94858 -118.40658 128 ft 21 kts 83°
2026-04-22 00:18 33.94875 -118.40495 125 ft 19 kts 83°
2026-04-22 00:18 33.94891 -118.40334 125 ft 19 kts 83°
2026-04-22 00:19 33.94904 -118.40217 128 ft 10 kts 74°
2026-04-22 00:19 33.94916 -118.40190 127 ft 0 kts 49°
2026-04-22 00:19 33.94921 -118.40185 126 ft 2 kts 43°
2026-04-22 00:19 33.94945 -118.40174 127 ft 5 kts
2026-04-22 00:20 33.95003 -118.40178 126 ft 13 kts 354°
2026-04-22 00:20 33.95108 -118.40193 127 ft 6 kts 354°
2026-04-22 00:20 33.95125 -118.40196 127 ft 7 kts 354°
2026-04-22 00:20 33.95196 -118.40208 125 ft 9 kts 338°
2026-04-22 00:21 33.95205 -118.40256 126 ft 8 kts 265°
2026-04-22 00:21 33.95182 -118.40478 128 ft 61 kts 262°
2026-04-22 00:21 33.95100 -118.41283 128 ft 130 kts 263°
2026-04-22 00:21 33.94989 -118.42515 456 ft 155 kts 264°
2026-04-22 00:22 33.94839 -118.43808 1200 ft 156 kts 262°
2026-04-22 00:22 33.94687 -118.45105 1887 ft 161 kts 262°
2026-04-22 00:22 33.94524 -118.46536 2184 ft 184 kts 262°
2026-04-22 00:22 33.94310 -118.48086 2644 ft 196 kts 253°
2026-04-22 00:23 33.93579 -118.49523 3045 ft 213 kts 221°
2026-04-22 00:23 33.92285 -118.50430 3677 ft 218 kts 207°
2026-04-22 00:23 33.90873 -118.51128 4325 ft 221 kts 204°
2026-04-22 00:23 33.89418 -118.51768 4955 ft 224 kts 202°
2026-04-22 00:24 33.87932 -118.52375 5766 ft 229 kts 202°
2026-04-22 00:24 33.86385 -118.53003 6466 ft 240 kts 201°
2026-04-22 00:24 33.84780 -118.53652 7194 ft 249 kts 201°
2026-04-22 00:24 33.83102 -118.54333 7854 ft 258 kts 201°
2026-04-22 00:25 33.81395 -118.55009 8775 ft 259 kts 201°
2026-04-22 00:25 33.79661 -118.55682 9558 ft 266 kts 201°
2026-04-22 00:25 33.77897 -118.56353 10421 ft 265 kts 201°
2026-04-22 00:25 33.76132 -118.57000 11279 ft 267 kts 201°
2026-04-22 00:26 33.74934 -118.57410 11753 ft 273 kts 198°
2026-04-22 00:26 33.72970 -118.57348 12614 ft 292 kts 171°
2026-04-22 00:26 33.71144 -118.56173 12962 ft 315 kts 145°
2026-04-22 00:26 33.69811 -118.54019 13014 ft 330 kts 123°
2026-04-22 00:27 33.68684 -118.51635 13002 ft 326 kts 131°
2026-04-22 00:27 33.67417 -118.49374 13006 ft 327 kts 130°
2026-04-22 00:27 33.66161 -118.47094 12994 ft 327 kts 130°
2026-04-22 00:27 33.64915 -118.44810 12992 ft 327 kts 129°
2026-04-22 00:28 33.63674 -118.42522 12999 ft 327 kts 129°
2026-04-22 00:28 33.62436 -118.40233 12998 ft 327 kts 129°
2026-04-22 00:28 33.61198 -118.37942 13000 ft 327 kts 129°
2026-04-22 00:28 33.59964 -118.35659 13025 ft 327 kts 129°
2026-04-22 00:29 33.58729 -118.33375 13018 ft 327 kts 129°
2026-04-22 00:29 33.57488 -118.31081 13013 ft 327 kts 129°
2026-04-22 00:29 33.56250 -118.28794 13017 ft 327 kts 129°
2026-04-22 00:29 33.55012 -118.26506 13011 ft 327 kts 129°
2026-04-22 00:30 33.53774 -118.24223 13018 ft 327 kts 129°
2026-04-22 00:30 33.52536 -118.21938 13014 ft 327 kts 129°
2026-04-22 00:30 33.51299 -118.19658 13013 ft 326 kts 129°
2026-04-22 00:30 33.50061 -118.17378 13012 ft 326 kts 129°
2026-04-22 00:31 33.48822 -118.15098 13007 ft 326 kts 129°
2026-04-22 00:31 33.47589 -118.12829 13009 ft 326 kts 129°
2026-04-22 00:31 33.46347 -118.10545 13003 ft 326 kts 129°
2026-04-22 00:31 33.45108 -118.08268 13001 ft 326 kts 129°
2026-04-22 00:32 33.43871 -118.05997 12994 ft 326 kts 129°
2026-04-22 00:32 33.42631 -118.03721 12980 ft 326 kts 129°
2026-04-22 00:32 33.41393 -118.01451 12976 ft 326 kts 129°
2026-04-22 00:32 33.40151 -117.99177 12974 ft 332 kts 129°
2026-04-22 00:33 33.38850 -117.96814 12966 ft 349 kts 129°
2026-04-22 00:33 33.37481 -117.94331 12965 ft 366 kts 129°
2026-04-22 00:33 33.36046 -117.91731 12961 ft 383 kts 128°
2026-04-22 00:33 33.34545 -117.89013 12947 ft 400 kts 128°
2026-04-22 00:34 33.32978 -117.86177 12937 ft 416 kts 128°
2026-04-22 00:34 33.31376 -117.83268 12948 ft 422 kts 128°
2026-04-22 00:34 33.29757 -117.80319 12953 ft 425 kts 128°
2026-04-22 00:34 33.28135 -117.77359 12963 ft 426 kts 127°
2026-04-22 00:35 33.26513 -117.74400 12964 ft 426 kts 127°
2026-04-22 00:35 33.24889 -117.71436 12969 ft 426 kts 127°
2026-04-22 00:35 33.23266 -117.68477 12973 ft 426 kts 127°
2026-04-22 00:35 33.21647 -117.65509 12975 ft 426 kts 127°
2026-04-22 00:36 33.20041 -117.62536 12972 ft 426 kts 127°
2026-04-22 00:36 33.18432 -117.59569 12972 ft 426 kts 127°
2026-04-22 00:36 33.16819 -117.56599 12971 ft 426 kts 127°
2026-04-22 00:36 33.15237 -117.53682 12961 ft 410 kts 127°
2026-04-22 00:37 33.13717 -117.50865 12613 ft 401 kts 127°
2026-04-22 00:37 33.12205 -117.48072 12014 ft 400 kts 127°
2026-04-22 00:37 33.10701 -117.45306 11673 ft 392 kts 127°
2026-04-22 00:37 33.09240 -117.42619 11497 ft 380 kts 127°
2026-04-22 00:38 33.07830 -117.40015 11319 ft 369 kts 127°
2026-04-22 00:38 33.06462 -117.37480 11147 ft 358 kts 127°
2026-04-22 00:38 33.05136 -117.35015 10975 ft 348 kts 127°
2026-04-22 00:38 33.03847 -117.32611 10767 ft 340 kts 127°
2026-04-22 00:39 33.02594 -117.30265 10616 ft 331 kts 127°
2026-04-22 00:39 33.01383 -117.27984 10491 ft 320 kts 127°
2026-04-22 00:39 33.00216 -117.25775 10386 ft 310 kts 127°
2026-04-22 00:39 32.99107 -117.23656 10293 ft 300 kts 127°
2026-04-22 00:40 32.98027 -117.21577 10203 ft 290 kts 127°
2026-04-22 00:40 32.96993 -117.19566 10136 ft 280 kts 127°
2026-04-22 00:40 32.95998 -117.17617 10060 ft 275 kts 127°
2026-04-22 00:40 32.94980 -117.15631 9980 ft 285 kts 127°
2026-04-22 00:41 32.93935 -117.13597 9932 ft 289 kts 127°
2026-04-22 00:41 32.92912 -117.11595 9903 ft 277 kts 127°
2026-04-22 00:41 32.91947 -117.09682 9899 ft 262 kts 127°
2026-04-22 00:41 32.91034 -117.07849 9699 ft 256 kts 127°
2026-04-22 00:42 32.90123 -117.06032 9377 ft 255 kts 127°
2026-04-22 00:42 32.89206 -117.04225 9069 ft 254 kts 127°
2026-04-22 00:42 32.88288 -117.02430 8759 ft 254 kts 127°
2026-04-22 00:42 32.87176 -117.00874 8465 ft 241 kts 151°
2026-04-22 00:43 32.85742 -116.99928 8185 ft 236 kts 160°
2026-04-22 00:43 32.84249 -116.99097 7863 ft 236 kts 161°
2026-04-22 00:43 32.82755 -116.98285 7550 ft 237 kts 161°
2026-04-22 00:43 32.81259 -116.97477 7268 ft 236 kts 161°
2026-04-22 00:44 32.79761 -116.96675 6965 ft 236 kts 161°
2026-04-22 00:44 32.78261 -116.95888 6676 ft 235 kts 162°
2026-04-22 00:44 32.76718 -116.95519 6548 ft 218 kts 187°
2026-04-22 00:44 32.75287 -116.95862 6397 ft 203 kts 202°
2026-04-22 00:45 32.73964 -116.96333 6212 ft 195 kts 201°
2026-04-22 00:45 32.72628 -116.96787 5747 ft 205 kts 200°
2026-04-22 00:45 32.71232 -116.97246 5338 ft 208 kts 200°
2026-04-22 00:45 32.69866 -116.97720 5055 ft 201 kts 207°
2026-04-22 00:46 32.68911 -116.98798 4707 ft 189 kts 252°
2026-04-22 00:46 32.68865 -117.00306 4546 ft 185 kts 283°
2026-04-22 00:46 32.69218 -117.01737 4336 ft 179 kts 284°
2026-04-22 00:46 32.69558 -117.03158 4007 ft 179 kts 284°
2026-04-22 00:47 32.69897 -117.04574 3751 ft 176 kts 284°
2026-04-22 00:47 32.70226 -117.05945 3573 ft 173 kts 284°
2026-04-22 00:47 32.70567 -117.07365 3335 ft 183 kts 284°
2026-04-22 00:47 32.70927 -117.08858 3494 ft 195 kts 285°
2026-04-22 00:48 32.71308 -117.10440 3647 ft 203 kts 284°
2026-04-22 00:48 32.71694 -117.12062 3737 ft 205 kts 284°
2026-04-22 00:48 32.72074 -117.13697 4044 ft 208 kts 284°
2026-04-22 00:48 32.72468 -117.15429 4406 ft 227 kts 284°
2026-04-22 00:49 32.72899 -117.17308 4780 ft 243 kts 284°
2026-04-22 00:49 32.73368 -117.19268 4950 ft 251 kts 289°
2026-04-22 00:49 32.74373 -117.20968 4976 ft 257 kts 317°
2026-04-22 00:49 32.75980 -117.21920 4988 ft 265 kts 343°
2026-04-22 00:50 32.77827 -117.22209 5007 ft 270 kts 351°
2026-04-22 00:50 32.79696 -117.22407 5004 ft 270 kts 351°
2026-04-22 00:50 32.81574 -117.22416 4955 ft 272 kts
2026-04-22 00:50 32.83262 -117.21504 4981 ft 265 kts 36°
2026-04-22 00:51 32.84365 -117.19815 4978 ft 256 kts 66°
2026-04-22 00:51 32.84645 -117.17821 4981 ft 246 kts 95°
2026-04-22 00:51 32.84413 -117.15811 5008 ft 246 kts 100°
2026-04-22 00:51 32.84117 -117.13811 4997 ft 245 kts 101°
2026-04-22 00:52 32.83823 -117.11827 4891 ft 243 kts 101°
2026-04-22 00:52 32.83523 -117.09848 4606 ft 243 kts 101°
2026-04-22 00:52 32.83225 -117.07880 4345 ft 241 kts 103°
2026-04-22 00:52 32.82541 -117.06101 4076 ft 238 kts 133°
2026-04-22 00:53 32.81377 -117.04734 3984 ft 233 kts 138°
2026-04-22 00:53 32.80239 -117.03367 3986 ft 233 kts 137°
2026-04-22 00:53 32.79114 -117.01977 3962 ft 234 kts 137°
2026-04-22 00:53 32.77998 -117.00577 3969 ft 233 kts 137°
2026-04-22 00:54 32.76885 -116.99172 3977 ft 234 kts 136°
2026-04-22 00:54 32.75775 -116.97762 3984 ft 234 kts 136°
2026-04-22 00:54 32.74661 -116.96352 3963 ft 233 kts 139°
2026-04-22 00:54 32.73317 -116.95379 3911 ft 223 kts 171°
2026-04-22 00:55 32.71806 -116.95347 3819 ft 216 kts 197°
2026-04-22 00:55 32.70461 -116.96043 3722 ft 210 kts 220°
2026-04-22 00:55 32.68909 -116.98822 3588 ft 205 kts 260°
2026-04-22 00:56 32.68892 -117.00501 3341 ft 204 kts 281°
2026-04-22 00:56 32.69305 -117.02101 3078 ft 200 kts 285°
2026-04-22 00:56 32.69675 -117.03658 2817 ft 194 kts 285°
2026-04-22 00:56 32.70039 -117.05191 2477 ft 193 kts 285°
2026-04-22 00:57 32.70403 -117.06713 2106 ft 189 kts 286°
2026-04-22 00:57 32.70751 -117.08164 1799 ft 175 kts 286°
2026-04-22 00:57 32.71067 -117.09473 1557 ft 158 kts 286°
2026-04-22 00:57 32.71365 -117.10710 1354 ft 155 kts 285°
2026-04-22 00:58 32.71653 -117.11902 1170 ft 144 kts 285°
2026-04-22 00:58 32.71941 -117.13030 960 ft 142 kts 287°
2026-04-22 00:58 32.72196 -117.14151 694 ft 139 kts 282°
2026-04-22 00:58 32.72454 -117.15255 565 ft 138 kts 286°
2026-04-22 00:59 32.72723 -117.16346 377 ft 137 kts 285°
2026-04-22 00:59 32.72977 -117.17418 164 ft 133 kts 283°
2026-04-22 00:59 32.73233 -117.18454 29 ft 123 kts 286°
2026-04-22 00:59 32.73432 -117.19280 26 ft 82 kts 287°
2026-04-22 01:00 32.73563 -117.19818 32 ft 59 kts 285°
2026-04-22 01:00 32.73632 -117.20118 29 ft 25 kts 281°
2026-04-22 01:00 32.73588 -117.20210 29 ft 12 kts 199°
2026-04-22 01:00 32.73548 -117.20224 29 ft 4 kts 197°
2026-04-22 01:01 32.73510 -117.20239 28 ft 8 kts 198°
2026-04-22 01:01 32.73456 -117.20257 27 ft 9 kts 193°
2026-04-22 01:01 32.73403 -117.20272 26 ft 7 kts 193°
2026-04-22 01:01 32.73367 -117.20275 29 ft 1 kts 173°